HST 1 20580U 90037B 25354.95569548 .00004654 00000+0 15692-3 0 9998 2 20580 28.4662 216.5634 0002147 340.2259 19.8253 15.28150746761259 POLAR 1 23802U 96013A 25352.80568198 .00000192 00000+0 00000+0 0 9996 2 23802 79.6373 229.0871 6290371 215.1832 79.5758 1.29846054142514 SWAS 1 25560U 98071A 25354.88987576 .00002893 00000+0 19414-3 0 9993 2 25560 69.8973 326.8119 0006052 206.1207 153.9651 15.08014282470375 CXO 1 25867U 99040B 25357.19663071 .00000723 00000+0 00000+0 0 9995 2 25867 53.1982 122.2065 8120384 310.7813 0.3709 0.37795859 16655 XMM-NEWTON 1 25989U 99066A 25352.84950202 .00000081 00000+0 00000+0 0 9997 2 25989 65.4033 285.3699 4740231 68.0474 0.2178 0.50133546 22108 TERRA 1 25994U 99068A 25354.90588591 .00000328 00000+0 76124-4 0 9991 2 25994 97.9736 46.2903 0003530 78.3423 94.5294 14.60910196383570 CLUSTER II-FM7 (SAMBA) 1 26410U 00041A 25356.82956017 .00003777 00000+0 00000+0 0 9999 2 26410 147.7485 26.0525 8774398 241.8479 359.6851 0.44822013 19519 CLUSTER II-FM8 (TANGO) 1 26464U 00045B 25355.52316153 .00003936 00000+0 00000+0 0 9996 2 26464 148.0433 26.6344 8777294 242.2748 359.8882 0.44424386 19519 ODIN 1 26702U 01007A 25354.83435314 .00021078 00000+0 35438-3 0 9998 2 26702 97.4201 23.0168 0005349 89.2205 270.9661 15.51762236361581 TIMED 1 26998U 01055B 25354.94360556 .00000948 00000+0 90935-4 0 9992 2 26998 74.0674 233.7679 0000646 212.2135 147.9010 14.94713897304184 CORIOLIS 1 27640U 03001A 25354.91702664 .00000104 00000+0 69757-4 0 9999 2 27640 98.7140 359.5233 0014205 10.8181 349.3299 14.19875287188920 SORCE 1 27651U 03004A 25354.94744102 .00002425 00000+0 19081-3 0 9992 2 27651 39.9890 197.6757 0017235 214.1093 145.8594 15.02341088245077 MOST 1 27843U 03031D 25354.96405527 .00000054 00000+0 44689-4 0 9991 2 27843 98.7064 0.1689 0010692 51.2281 308.9850 14.21272443165398 SCISAT 1 1 27858U 03036A 25354.79654921 .00000463 00000+0 64280-4 0 9990 2 27858 73.9285 165.7115 0008588 270.2192 89.8000 14.81130109205037 SWIFT 1 28485U 04047A 25354.65099322 .00028726 00000+0 46054-3 0 9993 2 28485 20.5536 105.0578 0004297 28.1775 331.8899 15.51074948158940 HINODE (SOLAR-B) 1 29479U 06041A 25354.32207743 .00000478 00000+0 91167-4 0 9995 2 29479 98.0643 8.0562 0018518 132.8126 227.4639 14.68313635 28621 SHIJIAN-6 02A (SJ-6 02A) 1 29505U 06046A 25354.91890994 .00004526 00000+0 25027-3 0 9990 2 29505 97.6609 29.7139 0004308 51.7254 308.4365 15.14386133 45261 SHIJIAN-6 02B (SJ-6 02B) 1 29506U 06046B 25354.88999012 .00001462 00000+0 12048-3 0 9993 2 29506 97.6887 20.3846 0013276 311.0160 48.9915 15.00564374 43999 FGRST (GLAST) 1 33053U 08029A 25354.33914997 .00003276 00000+0 12286-3 0 9996 2 33053 25.5838 5.2108 0008421 20.8988 339.1894 15.22649510968536 SDO 1 36395U 10005A 25354.30501822 -.00000078 00000+0 00000+0 0 9996 2 36395 34.2760 89.0726 0001110 157.9093 209.9073 1.00269936 58277 CRYOSAT 2 1 36508U 10013A 25354.92332865 .00000147 00000+0 35877-4 0 9999 2 36508 92.0256 234.1509 0002486 95.3299 264.8192 14.51899229832217 X-SAT 1 37389U 11015C 25354.89968856 -.00000118 00000+0 -33004-4 0 9991 2 37389 98.3311 335.6274 0014657 142.4001 217.8207 14.25131827762288 GCOM-W1 (SHIZUKU) 1 38337U 12025A 25354.83440934 .00000413 00000+0 10169-3 0 9995 2 38337 98.2227 292.9373 0001302 67.6999 349.7922 14.57135931723066 NUSTAR 1 38358U 12031A 25354.91668981 .00006233 00000+0 35420-3 0 9991 2 38358 6.0265 289.2470 0008828 333.6807 20.6362 15.06494806 1302 NEOSSAT 1 39089U 13009D 25354.73757281 .00000129 00000+0 59396-4 0 9998 2 39089 98.4074 174.0691 0011997 61.3913 298.8478 14.35734364671135 BRITE-AUSTRIA 1 39091U 13009F 25354.47609889 .00000151 00000+0 66124-4 0 9994 2 39091 98.3887 173.3971 0011159 57.4179 302.8083 14.36439927671396 IRIS 1 39197U 13033A 25354.54791102 .00001260 00000+0 15239-3 0 9998 2 39197 97.9392 189.3121 0024494 180.4830 179.6365 14.85307969673850 HISAKI (SPRINT-A) 1 39253U 13049A 25354.82372098 .00000095 00000+0 44214-4 0 9999 2 39253 29.7211 46.8043 0136967 10.8477 349.5006 13.55522196607201 CASSIOPE 1 39265U 13055A 25354.91052708 .00032438 -29991-6 43018-3 0 9996 2 39265 80.9207 281.1859 0338562 298.3069 58.4382 15.12137291640609 STSAT-3 1 39422U 13066G 25354.92305999 .00003073 00000+0 24220-3 0 9996 2 39422 97.6022 323.1202 0012761 285.7104 74.2713 15.01439694657447 SWARM B 1 39451U 13067A 25351.71023028 .00002957 00000+0 11017-3 0 9993 2 39451 87.7441 37.3525 0003127 82.9666 277.1938 15.27053080655532 SWARM A 1 39452U 13067B 25354.90742419 .00008460 00000+0 16890-3 0 9999 2 39452 87.3372 122.2557 0002276 93.4887 266.6633 15.46651394678653 SWARM C 1 39453U 13067C 25354.90733756 .00008530 00000+0 17032-3 0 9991 2 39453 87.3370 120.8407 0002281 93.9915 266.1604 15.46650312678611 BRITE-CA1 (TORONTO) 1 40020U 14033L 25354.86411663 .00000902 00000+0 14386-3 0 9996 2 40020 97.9498 122.4188 0080279 127.3193 233.5366 14.72232124615976 OCO 2 1 40059U 14035A 25354.88901236 .00000368 00000+0 91766-4 0 9996 2 40059 98.2227 293.7356 0001349 96.9170 263.2182 14.57056100610082 BRITE-PL2 (HEWELIUSZ) 1 40119U 14049B 25354.77261265 .00001688 00000+0 16498-3 0 9991 2 40119 97.8998 100.6780 0013859 346.6447 13.4404 14.93687698614805 MMS 1 1 40482U 15011A 25354.91668981 -.00000631 00000+0 00000+0 0 9992 2 40482 69.3747 351.4137 8498265 163.4638 115.5553 0.28364712 1305 MMS 2 1 40483U 15011B 25354.91668981 -.00000631 00000+0 00000+0 0 9993 2 40483 69.3721 351.4044 8499734 163.4803 115.5218 0.28364706 1302 MMS 3 1 40484U 15011C 25354.91668981 -.00000631 00000+0 00000+0 0 9994 2 40484 69.3768 351.4208 8499675 163.4762 115.5175 0.28364712 1303 MMS 4 1 40485U 15011D 25354.91668981 -.00000632 00000+0 00000+0 0 9996 2 40485 69.3764 351.4132 8500986 163.4630 115.5545 0.28364708 1304 ASTROSAT 1 40930U 15052A 25354.11942280 .00001555 00000+0 10913-3 0 9997 2 40930 5.9974 3.8866 0008131 354.9256 5.0789 14.82035108553217 DAMPE 1 41173U 15078A 25354.94380579 .00000804 00000+0 30151-4 0 9996 2 41173 97.4540 354.6220 0012169 357.1950 2.9220 15.30180418557281 PISAT 1 41784U 16059B 25354.92983520 .00000802 00000+0 14550-3 0 9999 2 41784 97.8156 358.1274 0030484 56.6123 303.7993 14.68513797493577 HXMT (HUIYAN) 1 42758U 17034A 25354.76163383 .00004243 00000+0 22447-3 0 9991 2 42758 43.0144 95.1101 0031071 96.1198 264.3191 15.16320013470556 FLYING LAPTOP 1 42831U 17042G 25354.94081001 .00002557 00000+0 20997-3 0 9992 2 42831 97.4246 153.1867 0014560 22.3326 337.8529 14.99961519459725 ZHANGHENG 1-01 (CSES-1) 1 43194U 18015C 25354.89754307 .00006847 00000+0 31009-3 0 9998 2 43194 97.6656 152.2177 0018476 176.9332 183.2020 15.21063816437546 SALSAT 1 46495U 20068K 25354.92279303 .00006142 00000+0 23848-3 0 9998 2 46495 97.8783 342.6369 0009624 197.0373 163.0542 15.26450855288130 IXPE 1 49954U 21121A 25354.91668981 .00009168 00000+0 52046-3 0 9998 2 49954 0.2280 223.8846 0007222 264.2517 32.0302 15.08059343 5821